Погода в Мандалае

Мьянма     21°59′30″N   96°05′46″E
темп.,
°C
ветер,
м/с
пор.,
м/с
влажн.,
%
обл.,
%
осадки,
мм/ч
давл.,
гПа
погр.,
м
25 июля, вс
вс2500:30+28ю6137398 0.0 1003728
03:30+27ю6137496 0.0 1002740
06:30+27ю5117777 0.0 1003728
09:30+29ю5868100 0.1 10041115
12:30+29ююв4667100 0.8 1003877
15:30+30ююв2466100 0.6 1001618
18:30+26юв4783100 0.9 1001360
21:30+26юв2485100 0.4 1003155
26 июля, пн
пн2600:30+26юв278787 2.6 1002392
03:30+25ююв498764 3.6 1002533
06:30+26ю4108664 4.6 1002563
09:30+30ю676555 0.0 10031161
12:30+32ю675699 0.1 10001572
15:30+33ю4653100 0.0 9981736
18:30+30ю7116990 0.8 999664
21:30+27ю71377100 0.1 1002616
27 июля, вт
вт2700:30+27ю51077100 0.1 1001581
03:30+26ю4878100 0.0 1000458
06:30+26ю378199 0.0 1001467
09:30+30ю356555 0.0 10021037
12:30+31ююз6760100 0.3 9991382
15:30+32ю7855100 0.6 9981617
18:30+30ю6966100 0.6 998754
21:30+28ю61174100 0.0 1001616
28 июля, ср
ср2800:30+27ю51176100 0.1 1001675
03:30+27ю4974100 0.0 1000721
06:30+27ю367770 0.0 1001376
09:30+29ююз466564 0.0 1002790
12:30+30ю796059 0.6 10011216
15:30+32ю785596 0.1 9981636
18:30+30ю61065100 0.1 999922
21:30+28ю6127254 0.0 1002769
29 июля, чт
чт2900:30+27ю497498 0.0 1002621
03:30+27ю4972100 0.0 1001637
06:30+27юв1376100 0.0 1001208
09:30+29ююв236798 0.0 1003547
12:30+33ю475190 0.1 10011779
15:30+32ю5856100 0.2 999900
18:30+30ю6116937 1.8 1000548
21:30+28ю6137539 0.7 1003639